EW2575 El Paso ES current weather conditions

sailwx.info

Wind from 215

Air temperature 14.4° C
Dewpoint 11.6° C

Last reported at 2018-Jan-18 18:56 UTC.
Time now 2018-Jan-18 19:53 UTC

Location: N 28°39' W 017°53'.
View on Google Maps.

See reports from other nearby stations

  
Tides and Currents Weather Stations Pressure Air Temp Water Temp Dewpoint Dewpoint Depression Visibility Wind Speed Wind Dir Waves Ship Positions
date/time (UTC)wind fromknots sea level pressurealtimeterstation pressurevisibilityair tempwater tempwave heightnotes
2018-Jan-18 18:56 215 14.4
2018-Jan-18 18:41 215 15.0
2018-Jan-18 18:26 215 15.6
2018-Jan-18 18:10 215 15.6
2018-Jan-18 17:56 215 15.6
2018-Jan-18 17:41 215 15.6
2018-Jan-18 17:25 215 4 gusting 7 16.1
2018-Jan-18 17:10 215 16.1
2018-Jan-18 16:55 215 16.1
2018-Jan-18 16:40 215 0 gusting 6 16.1
2018-Jan-18 16:09 223 2 gusting 10 16.1
2018-Jan-18 15:54 210 2 gusting 6 16.7
2018-Jan-18 15:39 209 2 gusting 7 16.7
2018-Jan-18 15:24 209 16.1
2018-Jan-18 15:08 210 2 gusting 8 15.6
2018-Jan-18 14:53 211 3 gusting 6 15.6
2018-Jan-18 14:38 211 1 gusting 8 15.0
2018-Jan-18 14:23 211 0 gusting 7 15.6
2018-Jan-18 14:08 209 6 gusting 9 16.1
2018-Jan-18 13:54 190 1 gusting 9 16.1
2018-Jan-18 13:38 182 15.6
2018-Jan-18 13:22 182 15.6
2018-Jan-18 13:08 181 3 gusting 7 16.1
2018-Jan-18 12:52 180 2 gusting 7 15.6
2018-Jan-18 12:37 177 15.6
2018-Jan-18 12:22 177 15.6
2018-Jan-18 12:07 177 15.0
2018-Jan-18 11:51 177 4 gusting 7 15.6
2018-Jan-18 11:36 174 3 gusting 8 15.0
2018-Jan-18 11:21 163 2 gusting 8 15.0
2018-Jan-18 11:06 151 6 gusting 8 16.1
2018-Jan-18 10:52 136 2 gusting 9 15.6
2018-Jan-18 10:35 088 15.0
2018-Jan-18 10:21 088 0 gusting 6 15.0
2018-Jan-18 10:06 079 14.4
2018-Jan-18 09:50 079 13.9
2018-Jan-18 09:36 080 2 gusting 6 13.3
2018-Jan-18 09:19 080 0 gusting 6 12.2
2018-Jan-18 09:04 080 4 gusting 7 11.7
2018-Jan-18 08:49 080 4 gusting 9 11.7
2018-Jan-18 08:34 079 4 gusting 7 11.7
2018-Jan-18 08:19 080 4 gusting 8 12.8
2018-Jan-18 08:03 076 11.7
2018-Jan-18 07:48 077 1 gusting 6 11.7
2018-Jan-18 07:33 076 4 gusting 10 12.2
2018-Jan-18 07:18 080 12.2
2018-Jan-18 07:04 076 2 gusting 6 11.7
2018-Jan-18 06:48 076 4 gusting 6 11.7
2018-Jan-18 06:32 076 5 gusting 6 11.7
2018-Jan-18 06:17 076 0 gusting 5 12.2
2018-Jan-18 06:03 076 3 gusting 7 12.2
2018-Jan-18 05:47 078 1 gusting 4 12.2
2018-Jan-18 05:32 078 3 gusting 6 12.2
2018-Jan-18 05:17 077 3 gusting 6 12.2
2018-Jan-18 05:01 077 12.2
2018-Jan-18 04:46 067 5 gusting 7 12.2
2018-Jan-18 04:31 066 12.2
2018-Jan-18 04:16 066 12.8
2018-Jan-18 04:01 066 3 gusting 6 12.8
2018-Jan-18 03:46 066 3 gusting 8 13.3
2018-Jan-18 03:31 063 13.3
2018-Jan-18 03:15 063 13.9
2018-Jan-18 03:00 063 3 gusting 5 13.3
2018-Jan-18 02:45 063 13.9
2018-Jan-18 02:31 123 3 gusting 8 13.3
2018-Jan-18 02:14 130 1 gusting 6 12.8
2018-Jan-18 01:59 130 12.2
2018-Jan-18 01:44 130 3 gusting 4 12.2
2018-Jan-18 01:29 130 2 gusting 7 12.2
2018-Jan-18 01:15 142 4 gusting 6 12.2
2018-Jan-18 01:01 154 2 gusting 6 12.2
2018-Jan-18 00:43 156 3 gusting 5 12.8
2018-Jan-18 00:28 156 1 gusting 5 12.2
2018-Jan-18 00:13 156 3 gusting 5 12.2
2018-Jan-17 23:58 160 2 gusting 4 12.2
2018-Jan-17 23:43 160 0 gusting 4 12.8
2018-Jan-17 23:28 160 2 gusting 4 12.8
2018-Jan-17 23:12 160 12.8
2018-Jan-17 22:57 160 3 gusting 6 12.8
2018-Jan-17 22:42 173 3 gusting 4 12.8
2018-Jan-17 22:27 209 12.8